Weather History for Kirksville, MO

Change the Weather History Date:

Wednesday, September 11, 2013

  Actual Average Record
Temperature  
Mean Temperature 83 °F 66 °F  
Max Temperature 97 °F 78 °F 97 °F (2013)
Min Temperature 68 °F 55 °F 38 °F (1959)
Degree Days  
Heating Degree Days 0 2  
Month to date heating degree days 0 14  
Since 1 July heating degree days 13 21  
Cooling Degree Days 18 3  
Month to date cooling degree days 140 49  
Year to date cooling degree days 950 893  
Growing Degree Days 32 (Base 50)    
Moisture  
Dew Point 65 °F    
Average Humidity 59    
Maximum Humidity 87    
Minimum Humidity 31    
Precipitation  
Precipitation 0.12 in 0.14 in 3.80 in (1925)
Month to date precipitation 0.15 1.69  
Year to date precipitation 30.04 29.10  
Sea Level Pressure  
Sea Level Pressure 30.08 in    
Wind  
Wind Speed 6 mph (West)    
Max Wind Speed 21 mph    
Max Gust Speed 29 mph    
Visibility 9 miles    
Events Rain , Thunderstorm    
T = Trace of Precipitation, MM = Missing Value Source: NWS Daily Summary

Daily Weather History Graph

Daily Weather History Graph

Search for Another Location

Airport:

Trip Planner

Search our weather history database for the weather conditions in past years. The results will help you decide how hot, cold, wet, or windy it might be!

Date:

Astronomy

Sep. 11, 2013 Rise Set
Actual Time 6:47 AM CDT 7:25 PM CDT
Civil Twilight 6:20 AM CDT 7:52 PM CDT
Nautical Twilight 5:47 AM CDT 8:24 PM CDT
Astronomical Twilight 5:14 AM CDT 8:57 PM CDT
Moon 1:16 PM CDT (9/11) 11:21 PM CDT (9/11)
Length of Visible Light 13h 32m
Length of Day
12h 37m
Waxing Crescent, 39% of the Moon is Illuminated
Sep 11
Waxing Crescent
Sep 12
First Quarter
Sep 19
Full
Sep 26
Last Quarter
Oct 4
New

Hourly Weather History & Observations

Time (CDT) Temp. Heat Index Dew Point Humidity Pressure Visibility Wind Dir Wind Speed Gust Speed Precip Events Conditions
12:55 AM 78.1 °F - 62.1 °F 58% 30.06 in 10.0 mi SSW 8.1 mph - N/A   Clear
1:55 AM 75.9 °F - 62.1 °F 62% 30.06 in 10.0 mi SW 5.8 mph - N/A   Clear
2:55 AM 75.0 °F - 62.1 °F 64% 30.07 in 10.0 mi SW 5.8 mph - N/A   Clear
3:55 AM 75.9 °F - 62.1 °F 62% 30.07 in 10.0 mi WSW 6.9 mph - N/A   Clear
4:55 AM 73.9 °F - 62.1 °F 66% 30.08 in 10.0 mi SW 4.6 mph - N/A   Clear
5:55 AM 72.0 °F - 62.1 °F 71% 30.09 in 10.0 mi West 3.5 mph - N/A   Clear
6:55 AM 69.1 °F - 62.1 °F 78% 30.11 in 10.0 mi SSW 4.6 mph - N/A   Clear
7:55 AM 73.0 °F - 63.0 °F 71% 30.11 in 10.0 mi SW 3.5 mph - N/A   Clear
8:55 AM 75.9 °F - 64.0 °F 67% 30.12 in 10.0 mi WSW 3.5 mph - N/A   Clear
9:55 AM 82.9 °F 84.4 °F 64.0 °F 53% 30.12 in 10.0 mi West 4.6 mph - N/A   Clear
10:55 AM 88.0 °F 88.4 °F 62.1 °F 42% 30.11 in 10.0 mi SSW 5.8 mph - N/A   Clear
11:55 AM 93.0 °F 93.0 °F 61.0 °F 34% 30.09 in 10.0 mi West 9.2 mph - N/A   Clear
12:55 PM 93.0 °F 93.0 °F 61.0 °F 34% 30.08 in 10.0 mi West 10.4 mph 21.9 mph N/A   Clear
1:55 PM 93.9 °F 94.0 °F 61.0 °F 33% 30.06 in 10.0 mi West 9.2 mph 18.4 mph N/A   Mostly Cloudy
2:55 PM 95.0 °F 94.8 °F 60.1 °F 31% 30.05 in 10.0 mi WSW 8.1 mph - N/A   Clear
3:55 PM 91.0 °F 90.9 °F 61.0 °F 36% 30.04 in 10.0 mi WNW 17.3 mph 26.5 mph N/A   Overcast
4:11 PM 78.8 °F - 66.2 °F 65% 30.07 in 1.8 mi NW 9.2 mph 24.2 mph 0.04 in Rain Heavy Rain
4:18 PM 78.8 °F - 66.2 °F 65% 30.07 in 3.0 mi Variable 3.5 mph - 0.05 in Rain Light Rain
4:55 PM 79.0 °F - 70.0 °F 74% 30.05 in 10.0 mi WNW 5.8 mph - 0.05 in   Mostly Cloudy
5:55 PM 75.9 °F - 66.0 °F 71% 30.05 in 10.0 mi NNW 3.5 mph - 0.00 in Rain Light Rain
6:55 PM 75.0 °F - 68.0 °F 79% 30.05 in 10.0 mi Calm Calm - N/A   Overcast
7:55 PM 73.9 °F - 66.9 °F 79% 30.05 in 10.0 mi Calm Calm - N/A   Overcast
8:55 PM 73.9 °F - 66.9 °F 79% 30.07 in 10.0 mi Calm Calm - N/A   Overcast
9:55 PM 73.0 °F - 69.1 °F 87% 30.08 in 10.0 mi Calm Calm - N/A   Overcast
10:36 PM 71.6 °F - 66.2 °F 83% 30.12 in 3.0 mi Calm Calm - 0.04 in Rain , Thunderstorm Light Thunderstorms and Rain
10:51 PM 69.8 °F - 68.0 °F 94% 30.10 in 9.0 mi NE 4.6 mph - 0.05 in Rain Light Rain
10:55 PM 71.1 °F - 68.0 °F 90% 30.08 in 9.0 mi ENE 5.8 mph - 0.05 in Rain Light Rain
11:50 PM 71.6 °F - 69.8 °F 94% 30.10 in 9.0 mi NNW 8.1 mph 21.9 mph 0.00 in Rain , Thunderstorm Light Rain
11:55 PM 72.0 °F - 69.1 °F 91% 30.08 in 9.0 mi North 9.2 mph - 0.00 in Rain , Thunderstorm Light Rain